Weather in Raychihinsk

Russia / Amur Oblast     49°47′38″N   129°24′40″E
temp.,
°C
wind,
m/s
gust,
m/s
humid.,
%
clouds,
%
prec.,
mm/h
press.,
hPa
HPBL,
m
5 december, sun
sun500:00−22se239950 0.0 101932
03:00−21se2410046 0.0 101852
06:00−19se369949 0.0 101777
09:00−17se389711 0.0 1017127
12:00−10se589155 0.0 1014212
15:00−8se599313 0.0 1012225
18:00−13sse2298100 0.0 101320
21:00−9s2496100 0.1 101372
6 december, mon
mon600:00−7sse2397100 0.3 101290
03:00−11w349881 0.6 101462
06:00−18wnw37975 0.0 101679
09:00−20wnw2498100 0.0 101948
12:00−12w46905 0.0 1020207
15:00−10wsw37915 0.0 1021182
18:00−15wsw379616 0.0 102373
21:00−15wsw38926 0.0 102590
7 december, tue
tue700:00−19ssw229970 0.0 102511
03:00−17sse249898 0.0 102555
06:00−17s3397100 0.0 102544
09:00−13s2491100 0.0 102662
12:00−7ssw378475 0.0 1025354
15:00−8ssw11925 0.0 102515
18:00−15ssw11975 0.0 10279
21:00−17sw2210066 0.0 10299
8 december, wed
wed800:00−19ssw1110076 0.0 10309
03:00−21se1110099 0.0 10319
06:00−22se22100100 0.0 103211
09:00−20se22100100 0.0 103231
12:00−10sse23916 0.0 1031128
15:00−8se35945 0.0 1029122
18:00−12se369758 0.0 102970
21:00−13se359869 0.0 102856
9 december, thu
thu900:00−11se41095100 0.0 1026125
03:00−9se51192100 0.0 1024170
06:00−8se51291100 0.0 1021222
09:00−7sse61390100 0.0 1019240
12:00−5sse61187100 0.0 1017245
15:00−3sse4898100 1.9 1016246
18:000ssw41199100 3.1 1016741
21:00−1w6109798 5.3 1018739